OneWeb SL0366

operational
NORAD ID: 49292 Int'l Des: 2021-090 Owner: ONEWEBN Country: UK Constellation: oneweb
LEOCIRCULARPOLARONEWEB_TYPE

About OneWeb SL0366

Description loading...

Live Position

Loading 3D Globe...

Upcoming Passes

Altitude History

Altitude vs Time

uPlot chart will show altitude changes over time

Two-Line Element Set

1 49292U 21090P 25303.48406391 .00000077 00000-0 17395-3 0 9998
2 49292 87.9010 335.4832 0001806 94.2706 265.8630 13.14503451197389
Epoch: Oct 30, 2025 • Age: 20 hours

Current Status

Altitude 1210.3 km
Velocity 7.25 km/s
Sub-Earth Point 38.31°N, 178.5°E
Launch Date Oct 14, 2021
Age 4 years
Type internet

Technical Details

Classification Payload
Mass 148.00 kg
Dry Mass 140.00 kg
Total Mass 148.00 kg
Length 1.30 m
Diameter 1.00 m
Span 5.00 m
Shape Trapezoid+2 pan
Manufacturer ONEWUS
Bus Type ARROW
Phase Status In Orbit
Owner/State ONEWEBN/UK

Large Constellations

Loading constellations...